User: anonymous   Login
Location: Nairn
(57.5833°N, 3.8667°W)
Time: 06:00:05
(UTC+00:00)
Language:

Lacrosse 4 Rocket - Orbit

View from above orbital plane
View from above orbital plane
View from above satellite
View from above satellite

Ground track
Ground track

The orbit data is extracted from the following two-line orbital elements,

1 26474U 00047B   20292.87521951 +.00000056 +00000-0 +15779-4 0  9991
2 26474 067.9925 095.9555 0051688 059.1474 301.4738 14.96001302097704
Epoch (UTC): 18 October 2020 21:00:18
Eccentricity: 0.0051688
inclination: 67.9925°
perigee height: 543 km
apogee height: 615 km
right ascension of ascending node: 95.9555°
argument of perigee: 59.1474°
revolutions per day: 14.96001302
mean anomaly at epoch: 301.4738°
orbit number at epoch: 9770

The dashed part of the orbit path shows where the satellite is in the earth's shadow,  

DLR